KK5DC Weather Reports


Display with metric or nautical units.
time (UTC)temp
F
wind
direction
speed
MPH
gust
MPH
rain 1hr
in
rain 24hr
in
rain mn
in
humidity
%
barometer
mb
20260510092504 68 164 2.0 6.0 0.00 0.00 0.00 89 1011.2
20260510092004 68 144 2.0 5.0 0.00 0.00 0.00 89 1011.4
20260510092002 68 221 0.0 2.0 0.00 0.00 0.00 89 1012.1
20260510091515 68 196 0.0 2.0 0.00 0.00 0.00 89 1012.1
20260510091508 68 183 3.0 5.0 0.00 0.00 0.00 89 1011.4
20260510091005 68 169 0.0 2.0 0.00 0.00 0.00 88 1012.0
20260510091001 68 157 2.0 5.0 0.00 0.00 0.00 88 1011.5
20260510090504 68 165 0.0 2.0 0.00 0.00 0.00 88 1012.0
20260510090016 68 176 0.0 2.0 0.00 0.00 0.00 88 1012.0
20260510090012 68 179 1.0 4.0 0.00 0.00 0.00 88 1011.3
20260510085504 68 194 0.0 3.0 0.00 0.00 0.00 88 1012.0
20260510085003 69 183 2.0 3.0 0.00 0.00 0.00 88 1011.4
20260510084516 69 166 0.0 2.0 0.00 0.00 0.00 88 1012.1
20260510084010 69 154 1.0 3.0 0.00 0.00 0.00 87 1011.4
20260510083505 69 170 0.0 2.0 0.00 0.00 0.00 87 1012.2
20260510083503 69 147 1.0 3.0 0.00 0.00 0.00 87 1011.5
20260510083010 69 170 0.0 2.0 0.00 0.00 0.00 87 1012.3
20260510083002 69 165 1.0 3.0 0.00 0.00 0.00 87 1011.6
20260510082502 69 165 0.0 5.0 0.00 0.00 0.00 86 1011.6
20260510082003 69 176 0.0 2.0 0.00 0.00 0.00 86 1012.3
20260510081522 69 176 0.0 2.0 0.00 0.00 0.00 86 1012.3
20260510081509 69 168 2.0 4.0 0.00 0.00 0.00 86 1011.6
20260510081003 70 169 0.0 2.0 0.00 0.00 0.00 85 1012.4
20260510080503 70 179 0.0 2.0 0.00 0.00 0.00 85 1012.4
20260510080011 70 184 1.0 2.0 0.00 0.00 0.00 85 1012.4
20260510080004 70 147 2.0 4.0 0.00 0.00 0.00 85 1011.7
20260510075503 70 138 1.0 3.0 0.00 0.00 0.00 85 1011.7
20260510075006 70 155 0.0 2.0 0.00 0.00 0.00 85 1012.4
20260510075004 70 166 1.0 4.0 0.00 0.00 0.00 85 1011.7
20260510074518 70 142 2.0 4.0 0.00 0.00 0.00 85 1011.8
20260510074516 70 140 0.0 3.0 0.00 0.00 0.00 85 1012.3
20260510074007 70 157 0.0 3.0 0.00 0.00 0.00 85 1012.3
20260510074005 70 173 1.0 4.0 0.00 0.00 0.00 85 1011.7
20260510073506 71 188 1.0 4.0 0.00 0.00 0.00 85 1011.8
20260510073504 71 165 0.0 2.0 0.00 0.00 0.00 85 1012.3
20260510073033 71 158 0.0 2.0 0.00 0.00 0.00 84 1012.3
20260510073022 71 153 2.0 7.0 0.00 0.00 0.00 84 1011.7
20260510072503 71 161 1.0 7.0 0.00 0.00 0.00 84 1011.7
20260510072005 71 164 3.0 7.0 0.00 0.00 0.00 84 1011.7
20260510072002 71 169 0.0 3.0 0.00 0.00 0.00 84 1012.3
20260510071512 71 211 0.0 2.0 0.00 0.00 0.00 83 1012.2
20260510071503 71 162 2.0 6.0 0.00 0.00 0.00 83 1011.6
20260510071006 72 156 0.0 4.0 0.00 0.00 0.00 83 1012.3
20260510071002 72 97 1.0 6.0 0.00 0.00 0.00 83 1011.6
20260510070503 72 145 1.0 7.0 0.00 0.00 0.00 83 1011.5
20260510070015 72 178 3.0 8.0 0.00 0.00 0.00 83 1011.6
20260510065504 72 142 3.0 8.0 0.00 0.00 0.00 83 1011.6
20260510065006 72 182 1.0 8.0 0.00 0.00 0.00 84 1011.6
20260510065003 72 149 0.0 3.0 0.00 0.00 0.00 84 1012.2
20260510064539 71 144 0.0 4.0 0.00 0.00 0.00 84 1012.2
20260510064526 71 144 2.0 8.0 0.00 0.00 0.00 84 1011.5
20260510064004 71 162 1.0 4.0 0.00 0.00 0.00 85 1012.1
20260510063509 70 138 1.0 8.0 0.00 0.00 0.00 85 1011.4
20260510063507 70 149 0.0 2.0 0.00 0.00 0.00 85 1012.0
20260510063016 70 242 0.0 2.0 0.00 0.00 0.00 85 1012.1
20260510063008 70 140 2.0 8.0 0.00 0.00 0.00 85 1011.4
20260510062507 70 144 1.0 6.0 0.00 0.00 0.00 84 1011.6
20260510062009 70 69 0.0 4.0 0.00 0.00 0.00 84 1011.8
20260510062007 70 239 0.0 3.0 0.00 0.00 0.00 84 1012.3
20260510061514 70 68 1.0 4.0 0.00 0.00 0.00 84 1011.9
20260510061506 70 99 0.0 2.0 0.00 0.00 0.00 84 1012.4
20260510061004 70 148 1.0 3.0 0.00 0.00 0.00 84 1012.3
20260510060503 70 204 0.0 3.0 0.00 0.00 0.00 84 1012.3
20260510060024 69 140 0.0 2.0 0.00 0.00 0.00 84 1012.5
20260510060010 69 86 1.0 3.0 0.00 0.00 0.00 84 1011.9
20260510055504 69 170 0.0 2.0 0.00 0.00 0.00 84 1012.3
20260510055004 69 115 0.0 2.0 0.00 0.00 0.00 84 1012.2
20260510054512 69 163 0.0 2.0 0.00 0.00 0.00 84 1012.2
20260510054006 69 163 0.0 2.0 0.00 0.00 0.00 83 1012.2
20260510054003 69 128 0.0 2.0 0.00 0.00 0.00 83 1011.6
20260510053508 69 134 0.0 2.0 0.00 0.00 0.00 83 1012.3
20260510053503 69 86 0.0 2.0 0.00 0.00 0.00 83 1011.6
20260510053023 69 86 0.0 2.0 0.00 0.00 0.00 83 1011.6
20260510053018 69 117 0.0 2.0 0.00 0.00 0.00 83 1012.1
20260510052508 69 86 0.0 2.0 0.00 0.00 0.00 83 1011.6
20260510052506 69 117 0.0 2.0 0.00 0.00 0.00 83 1012.1
20260510052006 69 86 0.0 2.0 0.00 0.00 0.00 82 1011.5
20260510051516 69 101 0.0 2.0 0.00 0.00 0.00 82 1012.1
20260510051007 69 101 0.0 2.0 0.00 0.00 0.00 82 1012.0
20260510050507 69 85 0.0 2.0 0.00 0.00 0.00 82 1011.4
20260510050014 69 185 0.0 2.0 0.00 0.00 0.00 83 1012.0
20260510050012 69 85 0.0 2.0 0.00 0.00 0.00 83 1011.4
20260510045506 69 182 0.0 2.0 0.00 0.00 0.00 83 1012.0
20260510045504 69 42 0.0 2.0 0.00 0.00 0.00 83 1011.4
20260510045010 68 108 0.0 2.0 0.00 0.00 0.00 85 1012.0
20260510045007 68 71 0.0 2.0 0.00 0.00 0.00 85 1011.5
20260510044515 68 70 1.0 2.0 0.00 0.00 0.00 84 1011.3
20260510044510 68 155 0.0 2.0 0.00 0.00 0.00 84 1012.0
20260510044006 68 153 0.0 2.0 0.00 0.00 0.00 85 1012.0
20260510044004 68 70 1.0 2.0 0.00 0.00 0.00 85 1011.3
20260510043504 68 83 0.0 2.0 0.00 0.00 0.00 86 1011.3
20260510043018 68 184 0.0 0.0 0.00 0.00 0.00 86 1012.0
20260510042506 68 184 0.0 0.0 0.00 0.00 0.00 86 1012.0
20260510042504 68 83 0.0 2.0 0.00 0.00 0.00 86 1011.4
20260510042013 68 83 0.0 2.0 0.00 0.00 0.00 86 1011.3
20260510042009 68 184 0.0 0.0 0.00 0.00 0.00 86 1012.0
20260510041521 68 184 0.0 0.0 0.00 0.00 0.00 86 1012.0
20260510041005 68 184 0.0 0.0 0.00 0.00 0.00 86 1011.9
20260510040507 68 83 0.0 2.0 0.00 0.00 0.00 86 1011.3
20260510040504 68 184 0.0 0.0 0.00 0.00 0.00 86 1011.9
20260510040024 69 184 0.0 0.0 0.00 0.00 0.00 85 1011.8
20260510035507 69 83 0.0 2.0 0.00 0.00 0.00 86 1011.1
20260510035004 69 83 0.0 2.0 0.00 0.00 0.00 86 1011.0
20260510034514 69 83 0.0 2.0 0.00 0.00 0.00 86 1011.0
20260510034510 69 196 0.0 2.0 0.00 0.00 0.00 86 1011.7
20260510034005 69 196 0.0 0.0 0.00 0.00 0.00 86 1011.7
20260510033508 69 83 0.0 2.0 0.00 0.00 0.00 85 1011.0
20260510033502 69 110 0.0 0.0 0.00 0.00 0.00 85 1011.6
20260510033020 70 83 0.0 2.0 0.00 0.00 0.00 85 1010.9
20260510033014 70 110 0.0 0.0 0.00 0.00 0.00 85 1011.6
20260510032506 70 83 0.0 2.0 0.00 0.00 0.00 85 1010.8
20260510032009 70 83 0.0 2.0 0.00 0.00 0.00 84 1010.9
20260510032007 70 110 0.0 1.0 0.00 0.00 0.00 84 1011.5
20260510031516 71 83 0.0 2.0 0.00 0.00 0.00 83 1010.9
20260510031514 71 105 0.0 2.0 0.00 0.00 0.00 83 1011.5
20260510031007 71 105 0.0 2.0 0.00 0.00 0.00 83 1011.5
20260510030513 71 83 0.0 2.0 0.00 0.00 0.00 84 1010.7
20260510030508 71 105 0.0 1.0 0.00 0.00 0.00 84 1011.4
20260510030011 71 105 0.0 2.0 0.00 0.00 0.00 83 1011.4
20260510030005 71 83 0.0 2.0 0.00 0.00 0.00 83 1010.7
20260510025509 71 105 0.0 2.0 0.00 0.00 0.00 83 1011.3
20260510025503 71 83 0.0 2.0 0.00 0.00 0.00 83 1010.6
20260510025007 71 103 0.0 2.0 0.00 0.00 0.00 84 1011.3
20260510024528 72 103 0.0 2.0 0.00 0.00 0.00 83 1011.1
20260510024505 72 84 0.0 2.0 0.00 0.00 0.00 83 1010.6
20260510024005 72 90 0.0 2.0 0.00 0.00 0.00 82 1010.4
20260510024003 72 88 0.0 2.0 0.00 0.00 0.00 82 1011.0
20260510023503 72 124 0.0 2.0 0.00 0.00 0.00 82 1010.9
20260510023011 73 134 0.0 2.0 0.00 0.00 0.00 83 1010.9
20260510023007 73 90 0.0 2.0 0.00 0.00 0.00 83 1010.3
20260510022504 72 90 0.0 2.0 0.00 0.00 0.00 83 1010.2
20260510022007 73 134 0.0 0.0 0.00 0.00 0.00 83 1010.7
20260510021523 73 115 0.0 2.0 0.00 0.00 0.00 82 1010.2
20260510021515 73 134 0.0 0.0 0.00 0.00 0.00 82 1010.7
20260510021008 73 134 0.0 0.0 0.00 0.00 0.00 82 1010.6
20260510021004 73 115 0.0 2.0 0.00 0.00 0.00 82 1010.0
20260510020507 73 115 0.0 0.0 0.00 0.00 0.00 82 1009.9
20260510020023 74 134 0.0 0.0 0.00 0.00 0.00 81 1010.3
20260510020020 74 115 0.0 0.0 0.00 0.00 0.00 81 1009.8
20260510015506 74 134 0.0 0.0 0.00 0.00 0.00 80 1010.3
20260510015503 74 115 0.0 0.0 0.00 0.00 0.00 80 1009.8
20260510015003 75 115 0.0 2.0 0.00 0.00 0.00 79 1009.7
20260510014517 75 134 0.0 2.0 0.00 0.00 0.00 78 1010.2
20260510014504 75 115 0.0 2.0 0.00 0.00 0.00 78 1009.6
20260510014009 76 134 0.0 2.0 0.00 0.00 0.00 77 1010.1
20260510014003 76 115 0.0 2.0 0.00 0.00 0.00 77 1009.6
20260510013511 76 134 0.0 2.0 0.00 0.00 0.00 76 1010.0
20260510013504 76 153 0.0 2.0 0.00 0.00 0.00 76 1009.5
20260510013019 77 142 0.0 2.0 0.00 0.00 0.00 75 1010.0
20260510013009 77 98 0.0 5.0 0.00 0.00 0.00 75 1009.4
20260510012504 77 94 0.0 5.0 0.00 0.00 0.00 76 1009.4
20260510012502 77 106 0.0 2.0 0.00 0.00 0.00 76 1010.1
20260510012007 77 149 0.0 2.0 0.00 0.00 0.00 75 1010.0
20260510012003 77 115 0.0 2.0 0.00 0.00 0.00 75 1009.4
20260510011517 78 141 0.0 2.0 0.00 0.00 0.00 76 1010.0
20260510011513 78 117 1.0 2.0 0.00 0.00 0.00 76 1009.4
20260510011007 78 164 0.0 2.0 0.00 0.00 0.00 74 1010.0
20260510010507 79 117 0.0 2.0 0.00 0.00 0.00 73 1009.3
20260510010502 79 184 0.0 2.0 0.00 0.00 0.00 73 1010.1
20260510010008 80 117 0.0 2.0 0.00 0.00 0.00 72 1009.2
20260510005507 80 88 0.0 4.0 0.00 0.00 0.00 73 1009.2
20260510005503 80 168 0.0 2.0 0.00 0.00 0.00 73 1010.0
20260510005015 81 88 0.0 4.0 0.00 0.00 0.00 71 1009.2
20260510005006 81 168 0.0 2.0 0.00 0.00 0.00 71 1009.9
20260510004507 81 194 0.0 2.0 0.00 0.00 0.00 72 1009.9
20260510004006 82 129 0.0 2.0 0.00 0.00 0.00 72 1010.0
20260510003507 82 90 1.0 5.0 0.00 0.00 0.00 71 1009.1
20260510003505 82 189 0.0 5.0 0.00 0.00 0.00 71 1009.9
20260510003008 83 148 1.0 5.0 0.00 0.00 0.00 70 1009.8
20260510002503 83 138 1.0 5.0 0.00 0.00 0.00 69 1009.8
20260510002006 84 91 1.0 3.0 0.00 0.00 0.00 66 1009.0
20260510001512 84 64 1.0 6.0 0.00 0.00 0.00 66 1009.0
20260510001004 84 79 2.0 7.0 0.00 0.00 0.00 66 1009.0
20260510000504 85 161 1.0 5.0 0.00 0.00 0.00 66 1009.7
20260510000019 85 130 1.0 10.0 0.00 0.00 0.00 65 1008.9
20260510000011 85 182 0.0 5.0 0.00 0.00 0.00 65 1009.6
20260509235506 85 82 2.0 10.0 0.00 0.00 0.00 64 1008.9
20260509235003 85 159 2.0 8.0 0.00 0.00 0.00 61 1008.9
20260509234529 86 144 1.0 4.0 0.00 0.00 0.00 58 1008.8
20260509234518 86 211 1.0 2.0 0.00 0.00 0.00 58 1009.5
20260509234010 85 142 1.0 4.0 0.00 0.00 0.00 58 1008.8
20260509234006 85 191 0.0 2.0 0.00 0.00 0.00 58 1009.5
20260509233506 86 142 1.0 3.0 0.00 0.00 0.00 60 1008.8
20260509233503 86 130 0.0 2.0 0.00 0.00 0.00 60 1009.4
20260509233014 86 150 1.0 3.0 0.00 0.00 0.00 62 1008.8
20260509233008 86 158 0.0 2.0 0.00 0.00 0.00 62 1009.4
20260509232504 86 155 2.0 3.0 0.00 0.00 0.00 62 1008.6
20260509232009 86 84 0.0 5.0 0.00 0.00 0.00 59 1008.6
20260509232002 86 190 0.0 2.0 0.00 0.00 0.00 59 1009.3
20260509231515 87 88 1.0 5.0 0.00 0.00 0.00 61 1008.6
20260509231508 87 199 0.0 2.0 0.00 0.00 0.00 61 1009.3
20260509231004 87 150 2.0 5.0 0.00 0.00 0.00 59 1008.6
20260509230506 87 149 2.0 4.0 0.00 0.00 0.00 59 1008.5
20260509230503 87 128 0.0 2.0 0.00 0.00 0.00 59 1009.2
20260509230015 87 148 2.0 3.0 0.00 0.00 0.00 59 1008.5
20260509230008 87 161 0.0 2.0 0.00 0.00 0.00 59 1009.2
20260509225505 87 124 0.0 2.0 0.00 0.00 0.00 59 1009.2
20260509225008 87 138 1.0 3.0 0.00 0.00 0.00 60 1008.4
20260509225004 87 261 0.0 3.0 0.00 0.00 0.00 60 1009.1
20260509224530 88 86 0.0 3.0 0.00 0.00 0.00 59 1008.5
20260509224515 88 41 0.0 3.0 0.00 0.00 0.00 59 1009.2
20260509224005 88 71 0.0 3.0 0.00 0.00 0.00 57 1008.5
20260509223511 87 159 1.0 3.0 0.00 0.00 0.00 60 1008.4
20260509223505 87 115 0.0 2.0 0.00 0.00 0.00 60 1009.1
20260509223024 87 265 1.0 3.0 0.00 0.00 0.00 60 1008.3
20260509223013 87 215 1.0 2.0 0.00 0.00 0.00 60 1009.1
20260509222509 87 224 0.0 2.0 0.00 0.00 0.00 60 1008.3
20260509222506 87 278 1.0 3.0 0.00 0.00 0.00 60 1009.1
20260509222005 87 80 0.0 6.0 0.00 0.00 0.00 62 1008.3
20260509221508 87 139 2.0 6.0 0.00 0.00 0.00 60 1008.9
20260509221002 87 28 0.0 2.0 0.00 0.00 0.00 62 1009.0
20260509220505 86 115 1.0 3.0 0.00 0.00 0.00 65 1008.3
20260509220017 86 83 1.0 3.0 0.00 0.00 0.00 64 1009.1
20260509220011 86 332 1.0 3.0 0.00 0.00 0.00 64 1008.5
20260509215507 85 324 1.0 3.0 0.00 0.00 0.00 66 1008.5
20260509215503 85 63 1.0 3.0 0.00 0.00 0.00 66 1009.2
20260509215006 85 260 0.0 4.0 0.00 0.00 0.00 68 1008.6
20260509215003 85 5 1.0 2.0 0.00 0.00 0.00 68 1009.2
20260509214515 84 238 2.0 4.0 0.00 0.00 0.00 71 1008.7
20260509214005 82 265 1.0 4.0 0.00 0.00 0.00 74 1008.7
20260509213509 80 266 1.0 3.0 0.00 0.00 0.00 79 1008.8
20260509213506 80 186 0.0 2.0 0.00 0.00 0.00 79 1009.5
20260509213010 78 275 0.0 2.0 0.00 0.00 0.00 80 1008.9
20260509213008 78 5 0.0 2.0 0.00 0.00 0.00 80 1009.5
20260509212509 78 275 0.0 2.0 0.00 0.00 0.00 78 1009.0
20260509212504 78 5 0.0 2.0 0.00 0.00 0.00 78 1009.7
20260509212011 79 5 0.0 2.0 0.00 0.00 0.00 78 1009.8
20260509211526 78 285 0.0 2.0 0.00 0.00 0.00 77 1009.1
20260509211507 78 352 0.0 2.0 0.00 0.00 0.00 77 1009.7
20260509211006 78 285 0.0 2.0 0.00 0.00 0.00 76 1009.3
20260509211004 78 23 0.0 3.0 0.00 0.00 0.00 76 1009.8
20260509210509 79 285 0.0 2.0 0.00 0.00 0.00 75 1009.4
20260509210503 79 146 0.0 3.0 0.00 0.00 0.00 75 1009.9
20260509210013 79 288 0.0 2.0 0.00 0.00 0.00 76 1009.3
20260509210011 79 13 0.0 2.0 0.00 0.00 0.00 76 1009.8
20260509205505 79 348 1.0 3.0 0.00 0.00 0.00 74 1009.2
20260509205007 80 28 0.0 9.0 0.00 0.00 0.00 74 1009.4
20260509205005 80 360 0.0 3.0 0.00 0.00 0.00 74 1009.9
20260509204517 81 254 2.0 9.0 0.00 0.00 0.00 72 1009.3
20260509204514 81 20 1.0 3.0 0.00 0.00 0.00 72 1009.9
20260509204006 83 282 1.0 6.0 0.00 0.00 0.00 74 1009.4
20260509204003 83 360 0.0 2.0 0.00 0.00 0.00 74 1010.0
20260509203506 83 294 0.0 2.0 0.00 0.00 0.00 73 1009.6
20260509203504 83 326 0.0 2.0 0.00 0.00 0.00 73 1010.1
20260509203021 83 291 0.0 2.0 0.00 0.00 0.00 73 1009.5
20260509203014 83 326 0.0 2.0 0.00 0.00 0.00 73 1010.1
20260509202506 83 291 0.0 2.0 0.00 0.00 0.00 73 1009.4
20260509202016 84 291 0.0 2.0 0.00 0.00 0.00 1009.7
20260509202006 84 53 0.0 2.0 0.00 0.00 0.00 1010.2
20260509201517 83 285 0.0 2.0 0.00 0.00 0.00 70 1009.7
20260509201515 83 53 0.0 2.0 0.00 0.00 0.00 70 1010.3
20260509201008 84 267 0.0 2.0 0.00 0.00 0.00 70 1009.9
20260509200512 84 267 0.0 3.0 0.00 0.00 0.00 67 1010.0
20260509200510 84 16 1.0 2.0 0.00 0.00 0.00 67 1010.6
20260509200018 85 265 1.0 4.0 0.00 0.00 0.00 66 1009.9
20260509200008 85 252 0.0 2.0 0.00 0.00 0.00 66 1010.6
20260509195513 85 266 2.0 4.0 0.00 0.00 0.00 64 1010.1
20260509195503 85 350 0.0 2.0 0.00 0.00 0.00 64 1010.7
20260509195004 86 263 0.0 5.0 0.00 0.00 0.00 62 1010.1
20260509195002 86 262 1.0 3.0 0.00 0.00 0.00 62 1010.7
20260509194519 88 278 1.0 6.0 0.00 0.00 0.00 62 1010.0
20260509194511 88 352 0.0 3.0 0.00 0.00 0.00 62 1010.6
20260509194007 89 244 2.0 6.0 0.00 0.00 0.00 62 1009.9
20260509194005 89 273 1.0 3.0 0.00 0.00 0.00 62 1010.5
20260509193509 88 55 1.0 3.0 0.00 0.00 0.00 58 1010.6
20260509193506 88 207 1.0 5.0 0.00 0.00 0.00 58 1010.0
20260509193024 87 229 1.0 3.0 0.00 0.00 0.00 62 1009.8
20260509193017 87 281 1.0 3.0 0.00 0.00 0.00 62 1010.5
20260509192505 87 190 1.0 5.0 0.00 0.00 0.00 64 1009.9
20260509192503 87 78 1.0 3.0 0.00 0.00 0.00 64 1010.5
20260509192008 87 208 2.0 7.0 0.00 0.00 0.00 64 1010.1
20260509191523 88 222 4.0 7.0 0.00 0.00 0.00 67 1010.0
20260509191517 88 272 1.0 5.0 0.00 0.00 0.00 67 1010.6
20260509191013 86 213 3.0 6.0 0.00 0.00 0.00 70 1010.0
20260509191006 86 230 1.0 3.0 0.00 0.00 0.00 70 1010.7
20260509190511 86 91 1.0 3.0 0.00 0.00 0.00 67 1010.9
20260509190507 86 10 1.0 4.0 0.00 0.00 0.00 67 1010.2
20260509190029 85 238 2.0 4.0 0.00 0.00 0.00 68 1010.3
20260509190019 85 53 1.0 3.0 0.00 0.00 0.00 68 1011.0
20260509185509 85 273 0.0 4.0 0.00 0.00 0.00 67 1010.4
20260509185505 85 24 1.0 3.0 0.00 0.00 0.00 67 1011.1
20260509185004 84 267 1.0 4.0 0.00 0.00 0.00 70 1010.6
20260509184541 85 255 1.0 7.0 0.00 0.00 0.00 67 1010.8
20260509184521 85 46 0.0 3.0 0.00 0.00 0.00 67 1011.4
20260509184006 86 199 1.0 3.0 0.00 0.00 0.00 68 1011.5
20260509183507 84 250 1.0 3.0 0.00 0.00 0.00 70 1010.9
20260509183504 84 15 0.0 2.0 0.00 0.00 0.00 70 1011.5
20260509183028 84 333 0.0 2.0 0.00 0.00 0.00 73 1011.6
20260509183021 84 246 1.0 2.0 0.00 0.00 0.00 73 1011.0
20260509182507 83 298 0.0 3.0 0.00 0.00 0.00 72 1011.1
20260509182008 84 281 0.0 3.0 0.00 0.00 0.00 72 1011.1
20260509181517 85 292 2.0 5.0 0.00 0.00 0.00 68 1011.2
20260509181007 86 190 3.0 5.0 0.00 0.00 0.00 67 1011.2
20260509180514 86 230 3.0 4.0 0.00 0.00 0.00 69 1011.3
20260509180507 86 200 1.0 3.0 0.00 0.00 0.00 69 1011.8
20260509180016 84 348 1.0 3.0 0.00 0.00 0.00 73 1011.8
20260509180008 84 156 2.0 5.0 0.00 0.00 0.00 73 1011.3
20260509175512 83 214 2.0 4.0 0.00 0.00 0.00 71 1011.9
20260509175503 83 234 2.0 5.0 0.00 0.00 0.00 71 1011.4
20260509175007 84 204 2.0 4.0 0.00 0.00 0.00 72 1011.9
20260509175003 84 209 3.0 5.0 0.00 0.00 0.00 72 1011.5
20260509174511 82 232 2.0 6.0 0.00 0.00 0.00 75 1011.5
20260509174509 82 217 1.0 4.0 0.00 0.00 0.00 75 1012.0
20260509174003 84 275 3.0 6.0 0.00 0.00 0.00 71 1011.6
20260509173511 86 223 1.0 3.0 0.00 0.00 0.00 72 1012.1
20260509173502 86 155 1.0 5.0 0.00 0.00 0.00 72 1011.7
20260509173021 84 195 0.0 2.0 0.00 0.00 0.00 74 1012.2
20260509173008 84 248 2.0 5.0 0.00 0.00 0.00 74 1011.6
20260509172510 84 271 2.0 4.0 0.00 0.00 0.00 80 1011.8
20260509172504 84 294 1.0 2.0 0.00 0.00 0.00 80 1012.3
20260509172007 81 234 0.0 2.0 0.00 0.00 0.00 79 1012.3
20260509172004 81 202 0.0 5.0 0.00 0.00 0.00 79 1011.8
20260509171524 81 265 0.0 2.0 0.00 0.00 0.00 77 1012.2
20260509171506 81 215 3.0 5.0 0.00 0.00 0.00 77 1011.8
20260509171008 82 223 1.0 2.0 0.00 0.00 0.00 75 1012.2
20260509171002 82 190 1.0 5.0 0.00 0.00 0.00 75 1011.7
20260509170507 81 189 2.0 7.0 0.00 0.00 0.00 76 1011.7
20260509170504 81 158 0.0 3.0 0.00 0.00 0.00 76 1012.1
20260509170018 81 269 1.0 3.0 0.00 0.00 0.00 76 1012.2
20260509170004 81 229 2.0 7.0 0.00 0.00 0.00 76 1011.8
20260509165507 82 227 2.0 4.0 0.00 0.00 0.00 75 1012.1
20260509165502 82 211 3.0 6.0 0.00 0.00 0.00 75 1011.6
20260509165006 83 207 0.0 4.0 0.00 0.00 0.00 75 1012.1
20260509165003 83 213 1.0 8.0 0.00 0.00 0.00 75 1011.6
20260509164518 83 216 1.0 4.0 0.00 0.00 0.00 76 1012.1
20260509164509 83 210 5.0 8.0 0.00 0.00 0.00 76 1011.6
20260509164009 82 204 1.0 5.0 0.00 0.00 0.00 75 1012.1
20260509164006 82 180 2.0 10.0 0.00 0.00 0.00 75 1011.5
20260509163504 82 265 5.0 11.0 0.00 0.00 0.00 78 1011.6
20260509163023 83 235 6.0 12.0 0.00 0.00 0.00 77 1011.5
20260509163019 83 231 1.0 6.0 0.00 0.00 0.00 77 1012.0
20260509162507 83 165 2.0 6.0 0.00 0.00 0.00 78 1011.8
20260509162505 83 186 7.0 15.0 0.00 0.00 0.00 78 1011.3
20260509162006 83 178 1.0 6.0 0.00 0.00 0.00 79 1011.8
20260509162003 83 182 9.0 15.0 0.00 0.00 0.00 79 1011.3
20260509161518 82 227 2.0 6.0 0.00 0.00 0.00 79 1011.8
20260509161512 82 201 6.0 12.0 0.00 0.00 0.00 79 1011.3
20260509161012 82 165 2.0 6.0 0.00 0.00 0.00 77 1011.8
20260509161010 82 215 8.0 13.0 0.00 0.00 0.00 77 1011.2
20260509160508 82 224 2.0 5.0 0.00 0.00 0.00 80 1011.8
20260509160503 82 197 8.0 13.0 0.00 0.00 0.00 80 1011.2
20260509160022 81 152 1.0 6.0 0.00 0.00 0.00 79 1011.9
20260509160005 81 181 6.0 11.0 0.00 0.00 0.00 79 1011.2
20260509155506 81 230 2.0 6.0 0.00 0.00 0.00 79 1012.1
20260509155502 81 187 8.0 10.0 0.00 0.00 0.00 79 1011.4
20260509155009 81 213 2.0 6.0 0.00 0.00 0.00 81 1012.1
20260509155004 81 207 7.0 11.0 0.00 0.00 0.00 81 1011.4
20260509154529 81 221 1.0 6.0 0.00 0.00 0.00 80 1012.0
20260509154513 81 186 7.0 11.0 0.00 0.00 0.00 80 1011.3
20260509154006 81 213 4.0 6.0 0.00 0.00 0.00 80 1012.1
20260509154003 81 208 7.0 11.0 0.00 0.00 0.00 80 1011.4
20260509153507 81 193 1.0 6.0 0.00 0.00 0.00 81 1012.0
20260509153504 81 167 5.0 11.0 0.00 0.00 0.00 81 1011.3
20260509153025 81 279 3.0 7.0 0.00 0.00 0.00 82 1011.9
20260509153003 81 206 8.0 11.0 0.00 0.00 0.00 82 1011.3
20260509152507 80 169 1.0 7.0 0.00 0.00 0.00 85 1012.0
20260509152504 80 202 5.0 10.0 0.00 0.00 0.00 85 1011.3
20260509152007 79 181 7.0 10.0 0.00 0.00 0.00 83 1011.4
20260509151518 79 170 6.0 12.0 0.00 0.00 0.00 84 1011.3
20260509151516 79 154 1.0 5.0 0.00 0.00 0.00 84 1012.0
20260509151006 78 219 2.0 5.0 0.00 0.00 0.00 85 1011.8
20260509151003 78 181 6.0 12.0 0.00 0.00 0.00 85 1011.1
20260509150507 78 163 6.0 9.0 0.00 0.00 0.00 87 1011.0
20260509150020 76 215 0.0 2.0 0.00 0.00 0.00 91 1011.9
20260509150016 76 165 3.0 7.0 0.00 0.00 0.00 91 1011.1
20260509145509 75 233 1.0 4.0 0.00 0.00 0.00 89 1012.1
20260509145503 75 163 2.0 10.0 0.00 0.00 0.00 89 1011.2
20260509145009 76 146 1.0 5.0 0.00 0.00 0.00 89 1012.1
20260509145003 76 176 4.0 10.0 0.00 0.00 0.00 89 1011.2
20260509144519 76 270 1.0 5.0 0.00 0.00 0.00 89 1012.0
20260509144509 76 195 5.0 12.0 0.00 0.00 0.00 89 1011.2
20260509144007 75 156 1.0 2.0 0.00 0.00 0.00 90 1011.9
20260509144004 75 174 4.0 12.0 0.00 0.00 0.00 90 1011.1
20260509143510 75 220 1.0 3.0 0.00 0.00 0.00 92 1011.7
20260509143504 75 228 3.0 8.0 0.00 0.00 0.00 92 1010.8
20260509143016 75 159 1.0 3.0 0.00 0.00 0.00 91 1011.5
20260509143012 75 146 3.0 7.0 0.00 0.00 0.00 91 1010.7
20260509142507 75 144 1.0 4.0 0.00 0.00 0.00 92 1011.5
20260509142505 75 169 3.0 8.0 0.00 0.00 0.00 92 1010.7
20260509142009 75 227 1.0 4.0 0.00 0.00 0.00 93 1011.5
20260509141528 74 161 2.0 7.0 0.00 0.00 0.00 95 1010.8
20260509141523 74 200 1.0 4.0 0.00 0.00 0.00 95 1011.6
20260509141007 73 167 0.0 2.0 0.00 0.00 0.00 94 1011.7
20260509141004 73 165 3.0 7.0 0.00 0.00 0.00 94 1010.9
20260509140507 73 190 3.0 6.0 0.00 0.00 0.00 94 1011.0
20260509140020 73 165 0.0 2.0 0.00 0.00 0.00 94 1011.9
20260509140007 73 185 2.0 4.0 0.00 0.00 0.00 94 1011.2
20260509135507 73 182 0.0 2.0 0.00 0.00 0.00 94 1011.9
20260509135011 73 140 1.0 2.0 0.00 0.00 0.00 94 1012.0
20260509135005 73 155 1.0 3.0 0.00 0.00 0.00 94 1011.4
20260509134521 73 180 1.0 4.0 0.00 0.00 0.00 94 1012.0
20260509134518 73 154 1.0 3.0 0.00 0.00 0.00 94 1011.4
20260509134006 73 148 0.0 2.0 0.00 0.00 0.00 94 1011.5
20260509133509 73 93 0.0 2.0 0.00 0.00 0.00 94 1012.2
20260509133503 73 158 0.0 2.0 0.00 0.00 0.00 94 1011.5
20260509133022 73 165 0.0 2.0 0.00 0.00 0.00 94 1012.2
20260509133008 73 158 0.0 2.0 0.00 0.00 0.00 94 1011.6
20260509132508 73 165 0.0 2.0 0.00 0.00 0.00 94 1012.1
20260509132505 73 158 0.0 2.0 0.00 0.00 0.00 94 1011.5
20260509132008 73 165 0.0 2.0 0.00 0.00 0.00 94 1012.0
20260509131519 73 211 0.0 2.0 0.00 0.00 0.00 94 1012.0
20260509131511 73 158 0.0 2.0 0.00 0.00 0.00 94 1011.3
20260509131009 73 84 0.0 2.0 0.00 0.00 0.00 94 1011.9
20260509131003 73 158 0.0 2.0 0.00 0.00 0.00 94 1011.2
20260509130503 73 158 1.0 2.0 0.00 0.00 0.00 95 1010.9
20260509130024 73 158 0.0 2.0 0.00 0.00 0.00 95 1010.8
20260509130019 73 156 0.0 2.0 0.00 0.00 0.00 95 1011.6
20260509125510 73 158 0.0 2.0 0.00 0.00 0.00 95 1010.8
20260509125006 73 133 0.0 2.0 0.00 0.00 0.00 95 1011.7
20260509125004 73 187 1.0 2.0 0.00 0.00 0.00 95 1010.9
20260509124517 72 157 1.0 2.0 0.00 0.00 0.00 95 1011.0
20260509124512 72 98 0.0 2.0 0.00 0.00 0.00 95 1011.7
20260509124008 72 327 0.0 2.0 0.00 0.00 0.00 95 1010.9
20260509123510 72 98 0.0 2.0 0.00 0.00 0.00 95 1011.7
20260509123508 72 320 0.0 2.0 0.00 0.00 0.00 95 1010.9
20260509123014 72 320 0.0 2.0 0.00 0.00 0.00 95 1011.1
20260509123011 72 19 0.0 2.0 0.00 0.00 0.00 95 1011.8
20260509122504 72 320 0.0 2.0 0.00 0.00 0.00 95 1011.1
20260509122007 72 360 0.0 2.0 0.00 0.00 0.00 94 1011.6
20260509122003 72 320 0.0 2.0 0.00 0.00 0.00 94 1010.9
20260509121508 72 5 0.0 3.0 0.00 0.00 0.00 95 1011.4
20260509121005 72 320 0.0 3.0 0.00 0.00 0.00 94 1010.6
20260509120506 72 9 0.0 3.0 0.00 0.00 0.00 94 1011.4
20260509120504 72 320 0.0 2.0 0.00 0.00 0.00 94 1010.7
20260509120022 72 319 1.0 2.0 0.00 0.00 0.00 94 1010.9
20260509120016 72 16 0.0 2.0 0.00 0.00 0.00 94 1011.6
20260509115505 72 336 0.0 2.0 0.00 0.00 0.00 94 1011.6
20260509115503 72 333 1.0 4.0 0.00 0.00 0.00 94 1010.9
20260509115009 72 24 0.0 4.0 0.00 0.00 0.00 94 1011.6
20260509115007 72 330 0.0 4.0 0.00 0.00 0.00 94 1010.9
20260509114540 72 9 1.0 4.0 0.00 0.00 0.00 94 1011.8
20260509114523 72 328 1.0 3.0 0.00 0.00 0.00 94 1011.0
20260509114004 72 324 1.0 2.0 0.00 0.00 0.00 94 1011.3
20260509113505 72 360 0.0 2.0 0.00 0.00 0.00 94 1011.9
20260509113024 72 352 0.0 0.0 0.00 0.00 0.00 94 1011.9
20260509112507 72 265 0.0 2.0 0.00 0.00 0.00 94 1011.2
20260509112016 72 352 0.0 0.0 0.00 0.00 0.00 94 1012.0
20260509112008 72 265 0.0 2.0 0.00 0.00 0.00 94 1011.3
20260509111520 72 352 0.0 1.0 0.00 0.00 0.00 94 1012.0
20260509111512 72 265 0.0 2.0 0.00 0.00 0.00 94 1011.3
20260509111005 72 352 0.0 2.0 0.00 0.00 0.00 94 1012.3
20260509111003 72 265 0.0 2.0 0.00 0.00 0.00 94 1011.6
20260509110506 72 352 0.0 2.0 0.00 0.00 0.00 94 1012.3
20260509110014 72 302 0.0 2.0 0.00 0.00 0.00 94 1012.3
20260509110012 72 265 0.0 2.0 0.00 0.00 0.00 94 1011.6
20260509105510 72 302 0.0 2.0 0.00 0.00 0.00 94 1011.8
20260509105504 72 306 0.0 2.0 0.00 0.00 0.00 94 1012.5
20260509105008 72 62 0.0 2.0 0.00 0.00 0.00 94 1012.4
20260509105004 72 307 1.0 2.0 0.00 0.00 0.00 94 1011.8
20260509104522 72 62 0.0 0.0 0.00 0.00 0.00 94 1012.2
20260509104510 72 308 1.0 2.0 0.00 0.00 0.00 94 1011.5
20260509104009 72 323 0.0 2.0 0.00 0.00 0.00 94 1011.6
20260509104006 72 62 0.0 2.0 0.00 0.00 0.00 94 1012.3
20260509103509 72 323 0.0 2.0 0.00 0.00 0.00 94 1011.8
20260509103507 72 62 0.0 2.0 0.00 0.00 0.00 94 1012.5
20260509103011 72 62 0.0 2.0 0.00 0.00 0.00 94 1012.7
20260509102505 72 323 0.0 2.0 0.00 0.00 0.00 94 1012.0
20260509102011 72 323 0.0 2.0 0.00 0.00 0.00 94 1012.0
20260509101530 72 323 0.0 2.0 0.00 0.00 0.00 94 1011.8
20260509101526 72 360 0.0 2.0 0.00 0.00 0.00 94 1012.4
20260509101005 72 311 1.0 2.0 0.00 0.00 0.00 94 1011.6
20260509101003 72 350 0.0 2.0 0.00 0.00 0.00 94 1012.3
20260509100507 71 346 0.0 2.0 0.00 0.00 0.00 94 1012.0
20260509100012 71 163 0.0 1.0 0.00 0.00 0.00 94 1011.0
20260509095509 71 163 0.0 2.0 0.00 0.00 0.00 94 1010.8
20260509095507 71 229 0.0 2.0 0.00 0.00 0.00 94 1011.5
20260509095006 71 163 0.0 2.0 0.00 0.00 0.00 94 1010.7
20260509094523 71 229 0.0 2.0 0.00 0.00 0.00 94 1011.1
20260509094521 71 163 0.0 2.0 0.00 0.00 0.00 94 1010.5
20260509094007 71 143 1.0 1.0 0.00 0.00 0.00 94 1010.5
20260509093505 71 132 1.0 2.0 0.00 0.00 0.00 94 1010.4
20260509093023 72 229 0.0 0.0 0.00 0.00 0.00 94 1011.0
20260509093020 72 132 0.0 2.0 0.00 0.00 0.00 94 1010.4